RH
37 35 35 35 36 46 36 33 27 80 100 100 100 99 100 100 100 100 99 88 82 71 55 58 76 96 100 95 83 83 95 93 91 91 90 80 80 71 64 63 58 61 59 52
33 33 34 58 43 33 36 33 32 31 70 100 90 100 100 100 100 100 100 99 92 78 78 58 59 66 92 100 100 96 90 90 97 97 94 92 85 76 74 74 70 61 58 52
23 27 34 33 46 37 31 36 36 35 41 49 99 100 100 100 100 95 92 91 90 84 81 82 61 58 64 71 85 92 95 93 99 100 92 89 87 97 94 80 69 61 59 63
19 24 29 31 31 41 30 36 42 41 44 47 39 68 100 100 100 92 81 92 81 83 86 84 86 68 55 60 63 64 66 69 71 77 81 81 80 80 77 73 67 62 58 57
14 19 21 26 32 40 33 37 36 47 43 47 61 38 43 80 100 100 86 77 73 88 79 86 99 93 79 61 58 61 62 62 62 62 61 58 56 56 54 53 53 52 51 50
7 10 18 20 28 32 38 44 38 39 52 49 50 61 38 36 44 71 80 68 75 80 84 80 89 100 100 99 82 67 66 67 64 64 65 65 64 63 56 52 51 49 49 48
7 6 9 15 23 29 38 45 40 36 39 46 47 59 50 42 34 30 40 53 55 54 77 79 79 86 100 100 100 100 86 76 71 74 76 73 69 65 62 61 59 53 53 52
6 7 7 8 13 21 33 37 34 32 32 35 51 48 47 42 46 29 26 28 28 27 40 77 91 76 80 98 100 100 99 96 85 78 76 78 81 78 76 74 76 71 66 58
6 6 7 7 8 12 22 31 35 35 33 32 43 46 46 41 41 43 29 26 28 28 28 40 78 90 81 77 85 93 100 100 98 94 93 94 95 90 83 73 66 65 67 71
5 6 6 7 8 8 12 22 32 41 35 31 32 40 44 46 43 44 42 38 34 30 29 28 28 38 75 96 86 82 90 91 92 92 94 97 91 79 70 64 59 54 51 54
6 5 5 7 8 9 9 12 21 32 38 33 28 31 39 39 42 44 48 56 58 45 40 38 34 31 29 41 50 56 74 89 96 96 92 85 81 80 73 66 63 60 56 49
5 5 6 6 8 9 9 9 10 22 32 35 34 24 30 40 45 47 47 53 76 79 64 51 46 39 35 32 30 31 33 64 90 90 89 87 85 84 77 74 74 66 62 56
5 6 6 7 8 8 9 10 10 11 23 28 28 28 26 30 38 43 53 55 58 74 86 81 72 63 54 45 39 36 32 34 51 66 68 66 66 74 78 73 69 71 67 63
5 6 6 7 9 9 10 10 11 11 11 14 23 27 31 28 27 34 41 56 68 74 87 100 93 78 76 71 57 47 43 36 34 32 30 28 28 33 40 50 55 55 51 48
4 6 6 6 7 9 9 10 12 12 12 11 13 20 26 31 30 25 32 41 52 61 81 100 100 100 98 82 74 70 59 52 43 36 34 34 32 31 29 29 28 27 24 23
3 6 7 6 7 8 10 11 11 12 12 12 12 13 20 25 28 33 26 29 38 46 65 92 100 100 97 92 87 71 66 68 66 57 48 41 36 34 34 34 34 34 30 26
3 4 7 7 6 8 10 11 12 12 12 12 12 12 14 13 17 25 36 28 30 36 42 53 84 99 94 84 90 91 79 64 67 68 66 66 62 54 47 41 36 33 34 32
3 4 4 8 8 7 9 10 12 13 12 12 13 12 12 12 12 12 19 33 34 27 33 36 44 63 79 82 78 78 87 75 69 79 80 71 68 77 80 75 64 49 36 34
4 4 4 5 8 8 8 9 11 12 13 14 12 12 13 13 12 12 12 17 28 38 33 32 33 42 52 60 67 70 68 68 63 66 80 75 78 77 83 99 97 87 64 39
5 4 4 4 6 8 9 9 9 10 12 12 14 14 13 12 13 13 12 12 14 21 29 39 39 38 40 45 48 51 61 63 57 53 54 60 62 65 68 76 92 94 94 86
6 5 4 4 4 6 8 9 10 11 11 12 13 13 14 13 13 12 11 12 12 12 15 25 38 44 42 37 36 40 44 51 58 54 48 46 50 56 59 70 67 81 90 97
7 7 5 4 4 4 6 9 9 10 10 11 12 13 14 14 14 12 11 11 12 13 14 15 17 22 31 34 34 32 36 40 46 52 51 48 46 47 59 73 83 73 84 86
7 7 7 6 4 4 4 5 8 10 10 9 10 12 12 13 14 14 14 12 10 10 12 12 13 14 14 13 14 19 29 34 37 42 47 48 50 47 47 57 78 79 76 85
7 8 8 7 6 4 4 5 5 6 10 10 9 10 12 14 15 16 15 12 11 10 10 10 11 12 13 14 14 14 16 21 30 37 41 42 44 46 49 50 57 65 64 73
6 7 7 8 7 7 5 5 5 5 6 8 10 9 9 11 12 14 15 14 13 11 10 10 10 12 14 14 15 16 16 17 20 26 32 40 46 47 47 47 46 48 51 55
6 7 6 7 8 8 8 7 5 5 6 6 6 8 11 10 10 11 13 13 13 12 11 11 10 11 12 14 14 16 16 17 17 16 18 21 27 34 39 41 43 46 46 47
Wind_Speed
110 114 104 87 82 81 83 79 75 80 85 87 81 83 81 85 83 84 80 76 71 69 67 66 66 66 67 68 68 67 68 68 67 67 67 67 66 64 62 61 61 59 59 58
117 117 97 99 100 94 93 88 81 82 86 90 92 90 94 94 92 88 87 81 74 72 71 71 70 71 71 70 69 69 69 68 68 68 68 66 65 64 63 63 63 63 61 59
120 107 109 111 110 105 96 90 90 88 88 90 94 99 101 100 97 93 91 85 80 79 76 75 74 75 73 72 72 72 70 69 69 69 67 67 65 66 66 66 65 63 60 60
119 110 110 114 114 111 105 96 97 97 98 92 94 97 103 102 101 99 96 90 86 83 79 77 77 77 77 75 73 72 72 72 72 71 70 70 69 68 69 68 67 65 64 64
109 112 115 117 116 117 110 107 105 104 104 106 104 103 99 100 100 99 95 92 85 84 83 80 78 79 78 78 78 76 75 74 72 71 70 70 70 70 70 70 69 68 67 68
100 108 117 119 122 121 116 114 113 110 114 118 109 108 103 99 95 95 95 91 87 85 85 86 83 80 80 80 79 79 78 77 75 73 72 72 73 72 71 71 71 71 70 70
86 96 109 117 120 122 124 120 120 124 127 123 114 115 111 103 98 94 91 90 91 91 88 88 89 87 84 81 81 81 80 78 77 75 73 72 72 72 69 67 66 65 65 65
78 89 100 109 114 120 123 124 125 124 127 120 118 126 117 109 103 99 94 89 86 87 89 91 89 91 89 86 83 82 82 81 79 78 77 75 75 74 72 70 68 66 64 63
77 82 89 98 105 113 121 125 123 126 128 124 129 128 123 116 110 104 100 95 91 87 86 87 89 90 88 89 87 86 85 84 81 80 79 77 76 75 75 73 72 70 68 66
69 79 82 87 93 104 115 121 122 131 131 131 134 131 130 120 115 109 104 99 95 90 88 87 88 88 89 90 90 89 89 89 87 84 82 80 79 78 77 75 72 71 69 68
60 68 76 82 88 96 105 114 122 131 133 134 136 136 130 124 119 114 109 104 100 96 94 91 89 88 88 89 89 90 92 90 89 87 86 86 84 82 81 79 77 74 71 70
51 59 66 75 84 90 96 106 115 126 134 137 137 133 131 127 124 119 114 113 109 105 102 100 97 93 91 88 87 86 87 90 92 92 90 89 87 86 84 82 81 80 78 76
43 51 58 67 77 85 90 96 106 117 129 135 136 134 131 132 129 125 121 117 115 112 110 108 104 102 99 96 93 90 88 87 88 89 90 90 90 89 88 87 86 84 82 81
37 45 52 59 68 77 86 91 97 108 120 125 129 133 132 133 133 130 126 123 120 117 115 114 113 109 106 103 101 97 93 90 89 88 87 86 84 83 82 82 82 81 81 83
30 40 48 54 62 69 77 86 95 99 106 116 121 126 128 132 132 133 133 130 125 123 123 120 118 116 112 110 107 103 99 95 93 91 89 87 85 84 83 82 81 80 78 77
24 32 43 51 56 62 70 78 88 96 99 104 110 120 125 129 131 131 130 134 134 129 126 126 126 123 119 117 113 109 106 103 99 97 93 91 89 86 86 85 84 83 81 79
20 27 36 46 53 57 64 71 80 87 94 98 101 107 119 121 123 127 132 131 134 137 135 131 130 129 126 122 120 117 113 110 107 104 101 99 95 92 91 87 84 82 82 81
17 23 30 37 47 55 60 66 72 80 86 92 98 100 104 110 116 115 121 130 131 132 136 135 135 133 130 129 125 122 119 116 113 110 109 105 102 99 95 93 90 85 82 80
15 19 25 32 40 50 57 63 69 72 78 84 91 96 99 101 104 106 109 116 127 131 131 132 135 135 134 133 129 125 123 121 117 115 114 111 107 105 101 98 96 92 89 87
14 16 21 27 34 43 51 58 62 67 71 76 83 87 91 96 99 101 103 106 114 123 126 128 129 131 134 135 134 131 126 124 123 120 118 116 113 111 107 104 102 99 97 93
18 15 17 22 30 36 42 51 58 62 67 70 74 79 84 86 90 95 97 100 102 104 111 119 129 134 136 134 134 134 133 130 127 125 123 121 119 117 114 113 107 105 103 102
20 18 14 18 24 32 37 42 49 56 61 65 68 71 76 79 82 84 86 88 92 98 102 109 117 122 129 133 133 132 133 134 133 131 128 126 124 123 121 118 115 113 109 106
16 18 16 15 20 25 31 36 42 48 55 58 62 66 69 71 75 78 81 83 84 88 97 106 106 110 113 115 116 121 128 132 133 134 133 131 128 126 126 124 122 119 115 112
16 14 18 16 15 20 25 30 35 40 47 54 57 60 64 67 70 73 75 75 77 80 88 93 97 100 102 102 105 107 112 120 128 132 133 133 131 129 129 128 127 124 120 117
21 14 12 17 18 16 19 24 29 34 39 45 50 54 58 62 65 68 72 74 75 75 78 80 84 90 92 93 95 99 103 108 115 121 127 131 132 132 131 131 130 128 127 123
26 20 14 11 15 18 18 19 23 28 33 37 42 47 51 56 60 62 67 69 71 72 73 74 77 81 87 93 95 95 98 104 110 113 116 120 125 130 132 133 133 131 131 129
Wind_Direction
245 246 243 243 239 233 231 231 230 230 231 232 231 227 230 232 228 231 229 230 229 230 228 227 229 228 228 230 231 229 230 232 233 235 237 239 240 244 246 246 247 247 248 249
243 244 243 237 236 231 230 228 227 228 230 230 230 228 230 231 231 230 231 229 230 230 228 227 226 228 229 229 230 230 230 232 234 235 236 239 241 243 243 244 245 245 247 249
240 239 238 235 234 233 230 228 226 226 229 230 229 228 229 232 233 232 233 233 234 231 228 227 228 228 229 230 231 233 233 233 234 236 238 239 239 242 244 244 245 246 247 249
236 235 234 234 233 233 231 228 227 225 228 231 233 232 230 231 235 235 236 238 237 231 229 229 229 230 230 230 230 231 233 234 235 236 239 241 241 242 244 246 248 248 247 247
235 232 231 231 231 230 229 228 227 227 226 228 230 231 229 230 232 235 235 236 233 232 229 229 232 232 232 232 232 232 233 235 236 238 238 240 241 242 242 244 246 248 249 250
233 232 231 228 228 228 227 226 225 226 228 227 227 230 229 230 231 233 234 232 232 232 229 229 229 231 233 233 234 234 235 236 237 238 240 241 243 244 245 246 247 247 248 249
232 230 230 230 227 227 227 226 226 227 228 226 227 230 229 229 230 230 231 232 233 232 231 231 230 230 231 233 234 235 236 237 237 239 240 241 243 245 246 247 247 248 250 251
229 229 227 227 227 226 226 224 227 227 228 227 227 229 228 227 229 229 227 227 230 232 233 231 232 231 230 231 233 235 236 238 239 239 240 241 243 245 246 247 249 250 251 252
231 229 228 226 226 225 225 225 224 226 226 225 227 228 228 227 225 227 228 229 228 230 232 232 233 235 235 235 234 234 235 236 238 238 239 240 242 244 247 248 249 250 251 251
231 230 228 227 225 224 225 225 224 226 226 225 224 225 228 227 227 225 227 230 231 230 231 233 234 233 234 236 236 237 237 238 238 238 240 241 243 244 247 249 250 252 253 252
227 229 228 226 224 224 223 224 223 225 225 225 226 224 225 225 226 225 224 227 230 230 230 232 233 234 235 236 236 237 238 238 239 240 242 243 244 246 248 251 253 254 254 254
228 228 226 226 224 223 224 222 223 224 227 226 227 226 223 225 225 226 225 224 226 230 232 232 232 233 234 235 236 237 238 238 239 240 241 243 245 246 247 249 251 253 254 255
229 227 225 223 224 225 224 223 224 224 225 228 228 228 225 224 224 224 225 225 226 228 230 231 231 232 233 234 235 236 236 237 238 240 242 244 246 247 249 250 252 253 254 255
231 226 225 223 221 222 223 224 224 225 226 227 229 229 227 226 224 224 225 225 225 227 229 231 233 233 233 233 234 234 236 237 237 238 240 242 244 246 247 248 250 251 252 254
230 226 222 222 221 220 221 222 224 225 227 228 228 230 229 228 227 224 223 225 226 226 227 229 231 233 234 235 236 235 236 236 238 239 240 242 243 244 246 247 248 249 250 252
231 226 223 221 221 220 219 220 223 225 227 228 229 230 230 230 228 228 225 224 225 226 227 228 230 232 234 235 235 236 237 237 237 238 239 241 242 243 244 246 247 248 249 250
241 227 225 222 218 219 219 220 222 224 226 228 229 228 231 233 231 228 228 227 226 227 227 228 229 231 233 235 236 236 237 238 238 239 239 239 241 242 245 246 247 248 249 249
248 235 227 224 222 219 218 220 221 223 224 226 228 230 230 232 234 233 229 229 229 227 228 230 230 230 232 234 235 237 238 238 238 239 240 240 241 242 243 246 248 248 248 247
271 241 232 226 223 220 220 221 221 222 224 225 227 229 231 231 232 235 234 232 230 230 230 230 231 232 232 233 235 236 237 238 239 240 241 242 242 243 243 244 246 247 247 246
293 260 236 230 227 225 220 222 225 224 224 226 227 229 230 231 232 233 233 233 232 233 231 231 233 234 234 234 235 235 236 237 239 240 241 242 242 243 243 243 244 246 248 248
318 284 254 236 230 229 227 223 222 226 226 226 228 229 230 231 233 234 234 233 234 234 234 233 233 234 235 235 234 235 235 236 237 239 240 242 243 243 243 244 244 245 246 247
315 309 279 251 235 232 230 230 228 226 227 227 228 229 231 232 233 234 236 236 234 234 233 233 233 234 235 236 236 236 235 235 236 237 238 240 242 243 243 244 244 243 244 245
321 308 299 272 248 239 235 230 231 230 231 229 229 229 230 232 233 233 233 235 235 234 233 233 232 233 235 236 237 237 237 237 237 237 238 240 241 241 241 242 242 244 244 245
341 316 301 295 267 249 241 238 234 231 232 233 231 230 230 231 232 235 236 236 237 234 234 234 234 234 235 236 237 238 237 237 238 238 239 239 240 240 240 240 242 242 243 243
353 338 309 294 290 273 252 241 238 237 235 235 236 234 231 230 231 232 234 236 238 238 237 235 233 233 234 234 234 234 235 236 237 237 237 238 239 239 239 239 239 241 243 243
360 351 339 310 285 283 275 257 241 237 237 237 237 236 236 235 233 233 234 235 235 237 237 236 234 231 229 230 231 233 234 235 236 236 237 237 238 238 239 239 239 240 241 242